{"data":{"norad_id":60740,"epoch":"2026-05-25T01:46:58.465056Z","epoch_age_seconds":71653,"freshness":"FRESH","line1":"1 60740U 24152W   26145.07428779 -.00001213  00000+0 -28856-4 0  9994","line2":"2 60740  53.1610 273.7709 0000948 115.4690 244.6408 15.30194830 98411","mean_motion":15.3019483,"eccentricity":9.48e-5,"inclination_deg":53.161,"raan_deg":273.7709,"arg_perigee_deg":115.469,"mean_anomaly_deg":244.6408,"bstar":-2.8856e-5,"rev_number":9841,"period_min":94.105663655915,"perigee_km":474.58080691131,"apogee_km":475.88020539047,"semimajor_km":6853.3675061509,"source":"CELESTRAK","updated_at":"2026-05-25T13:38:19.311527Z"}}